TimeCDT,TemperatureF,Dew PointF,Humidity,Sea Level PressureIn,VisibilityMPH,Wind Direction,Wind SpeedMPH,Gust SpeedMPH,PrecipitationIn,Events,Conditions,WindDirDegrees,DateUTC
12:23 AM,73.0,72.0,96,29.97,0.8,Calm,Calm,-,N/A,,Mist,0,2013-06-13 05:23:00
12:41 AM,73.0,72.0,96,29.97,0.2,Calm,Calm,-,N/A,Fog,Fog,0,2013-06-13 05:41:00
12:53 AM,72.0,71.1,97,29.96,0.2,Calm,Calm,-,N/A,Fog,Fog,0,2013-06-13 05:53:00
1:04 AM,73.0,72.0,96,29.97,1.0,Calm,Calm,-,N/A,,Mist,0,2013-06-13 06:04:00
1:07 AM,72.0,71.1,97,29.97,2.0,Calm,Calm,-,N/A,,Partly Cloudy,0,2013-06-13 06:07:00
1:09 AM,72.0,71.1,97,29.97,1.0,Calm,Calm,-,N/A,,Mist,0,2013-06-13 06:09:00
1:13 AM,71.1,70.0,96,29.97,0.2,Calm,Calm,-,N/A,Fog,Fog,0,2013-06-13 06:13:00
1:53 AM,71.1,70.0,96,29.96,0.2,Calm,Calm,-,N/A,Fog,Fog,0,2013-06-13 06:53:00
2:53 AM,71.1,70.0,96,29.95,0.2,Calm,Calm,-,N/A,Fog,Fog,0,2013-06-13 07:53:00
3:26 AM,70.0,69.1,97,29.97,0.8,Calm,Calm,-,N/A,,Mist,0,2013-06-13 08:26:00
3:32 AM,70.0,69.1,97,29.97,1.2,Calm,Calm,-,N/A,,Scattered Clouds,0,2013-06-13 08:32:00
3:41 AM,71.1,70.0,96,29.97,2.5,Calm,Calm,-,N/A,,Partly Cloudy,0,2013-06-13 08:41:00
3:53 AM,70.0,69.1,97,29.96,1.8,Calm,Calm,-,N/A,,Clear,0,2013-06-13 08:53:00
4:05 AM,69.1,68.0,96,29.97,0.5,Calm,Calm,-,N/A,Fog,Fog,0,2013-06-13 09:05:00
4:09 AM,70.0,68.0,93,29.97,0.5,Variable,3.5,-,N/A,Fog,Fog,0,2013-06-13 09:09:00
4:19 AM,70.0,69.1,97,29.97,1.5,Calm,Calm,-,N/A,,Partly Cloudy,0,2013-06-13 09:19:00
4:39 AM,70.0,69.1,97,29.98,3.0,Calm,Calm,-,N/A,,Clear,0,2013-06-13 09:39:00
4:46 AM,69.1,68.0,96,29.98,1.5,ENE,3.5,-,N/A,,Clear,60,2013-06-13 09:46:00
4:53 AM,69.1,68.0,96,29.96,1.0,East,3.5,-,N/A,,Clear,80,2013-06-13 09:53:00
5:18 AM,70.0,69.1,97,29.98,3.0,Calm,Calm,-,N/A,,Clear,0,2013-06-13 10:18:00
5:34 AM,70.0,68.0,93,29.98,1.8,Calm,Calm,-,N/A,,Clear,0,2013-06-13 10:34:00
5:45 AM,69.1,68.0,96,29.98,0.5,Calm,Calm,-,N/A,Fog,Fog,0,2013-06-13 10:45:00
5:53 AM,69.1,68.0,96,29.97,1.0,Calm,Calm,-,N/A,,Clear,0,2013-06-13 10:53:00
6:27 AM,69.1,68.0,96,30.00,0.8,Calm,Calm,-,N/A,,Clear,0,2013-06-13 11:27:00
6:43 AM,70.0,69.1,97,30.00,2.0,Calm,Calm,-,N/A,,Clear,0,2013-06-13 11:43:00
6:53 AM,71.1,70.0,96,29.99,3.0,Calm,Calm,-,N/A,,Clear,0,2013-06-13 11:53:00
7:07 AM,72.0,70.0,93,30.00,2.0,Calm,Calm,-,N/A,,Clear,0,2013-06-13 12:07:00
7:38 AM,73.9,71.1,91,30.01,3.0,Calm,Calm,-,N/A,,Clear,0,2013-06-13 12:38:00
7:53 AM,75.9,72.0,87,30.00,6.0,Calm,Calm,-,N/A,,Clear,0,2013-06-13 12:53:00
8:53 AM,80.1,73.0,79,30.01,8.0,West,8.1,-,N/A,,Clear,260,2013-06-13 13:53:00
9:53 AM,84.0,72.0,67,30.01,10.0,West,10.4,-,N/A,,Clear,260,2013-06-13 14:53:00
10:53 AM,87.1,72.0,61,30.00,10.0,West,10.4,-,N/A,,Clear,260,2013-06-13 15:53:00
11:53 AM,89.1,73.0,59,29.99,10.0,WSW,10.4,-,N/A,,Clear,250,2013-06-13 16:53:00
12:53 PM,91.0,73.0,55,29.98,10.0,WNW,8.1,-,N/A,,Clear,290,2013-06-13 17:53:00
1:53 PM,91.9,73.0,54,29.96,10.0,West,11.5,-,N/A,,Clear,270,2013-06-13 18:53:00
2:53 PM,93.0,72.0,50,29.94,10.0,WSW,6.9,18.4,N/A,,Clear,250,2013-06-13 19:53:00
3:53 PM,93.9,73.0,51,29.92,10.0,West,9.2,-,N/A,,Clear,270,2013-06-13 20:53:00
4:53 PM,93.9,73.0,51,29.89,10.0,West,5.8,-,N/A,,Clear,280,2013-06-13 21:53:00
5:53 PM,93.0,73.0,52,29.88,10.0,WSW,6.9,-,N/A,,Clear,250,2013-06-13 22:53:00
6:53 PM,91.9,73.9,55,29.86,10.0,SW,5.8,-,N/A,,Clear,230,2013-06-13 23:53:00
7:53 PM,89.1,75.9,65,29.87,10.0,SW,3.5,-,N/A,,Clear,230,2013-06-14 00:53:00
8:53 PM,82.9,78.1,85,29.88,10.0,Calm,Calm,-,N/A,,Clear,0,2013-06-14 01:53:00
9:53 PM,80.1,77.0,90,29.89,9.0,Calm,Calm,-,N/A,,Clear,0,2013-06-14 02:53:00
10:53 PM,79.0,77.0,94,29.91,6.0,Calm,Calm,-,N/A,,Clear,0,2013-06-14 03:53:00
11:28 PM,78.1,75.9,93,29.93,1.5,Calm,Calm,-,N/A,,Clear,0,2013-06-14 04:28:00
11:35 PM,77.0,75.0,94,29.93,0.8,Calm,Calm,-,N/A,,Mist,0,2013-06-14 04:35:00
11:47 PM,77.0,75.2,94,29.93,1.5,Calm,Calm,-,N/A,,Partly Cloudy,0,2013-06-14 04:47:00
11:51 PM,77.0,75.2,94,29.93,3.0,Calm,Calm,-,N/A,,Partly Cloudy,0,2013-06-14 04:51:00
11:53 PM,77.0,75.9,96,29.91,3.0,Calm,Calm,-,N/A,,Partly Cloudy,0,2013-06-14 04:53:00